This demonstration page uses our WeatherBlox Daily Observations layout. Learn more.

Left ArrowRight Arrow

39.95238, -75.16362

Hourly Observations for August 12, 2016

Temp ( °F °C ) Dew Point ( °F °C ) Humidity (%) Winds ( mph kmh ) Pressure ( in mb ) Visibility ( mi km ) Precip ( " mm )
12:54 am 00:54 Cloudy 83 28.3 75 23.9 77 77 SSW 9 15 30.01 1016 10 16 0.00 0.00
1:54 am 01:54 Partly Cloudy 82 27.8 75 23.9 79 79 S 8 13 29.98 1015 10 16 0.00 0.00
2:54 am 02:54 Mostly Cloudy 81 27.2 76 24.4 85 85 SSW 8 13 29.97 1015 10 16 0.00 0.00
3:54 am 03:54 Mostly Cloudy 82 27.8 76 24.4 82 82 SW 12 19 29.97 1015 10 16 0.00 0.00
4:54 am 04:54 Partly Cloudy 81 27.2 76 24.4 85 85 SSW 12 19 29.96 1015 10 16 0.00 0.00
5:54 am 05:54 Mostly Cloudy 81 27.2 76 24.4 85 85 SSW 10 17 29.96 1015 10 16 0.00 0.00
6:54 am 06:54 Mostly Cloudy 81 27.2 76 24.4 85 85 SW 12 19 29.96 1014 10 16 0.00 0.00
7:54 am 07:54 Partly Cloudy 82 27.8 75 23.9 79 79 SW 14 22 29.96 1015 10 16 0.00 0.00
8:54 am 08:54 Partly Cloudy 85 29.4 75 23.9 72 72 WSW 14 22 29.96 1015 10 16 0.00 0.00
9:54 am 09:54 Partly Cloudy 87 30.6 74 23.3 65 65 SW 14 22 29.95 1014 10 16 0.00 0.00
10:54 am 10:54 Partly Cloudy 89 31.7 75 23.9 63 63 SW 13 20 29.95 1014 10 16 0.00 0.00
11:54 am 11:54 Partly Cloudy 92 33.3 75 23.9 58 58 SW 13 20 29.93 1014 10 16 0.00 0.00
12:54 pm 12:54 Partly Cloudy 93 33.9 76 24.4 58 58 SW 12 19 29.91 1013 10 16 0.00 0.00
1:54 pm 13:54 Partly Cloudy 96 35.6 75 23.9 51 51 SW 12 19 29.90 1012 10 16 0.00 0.00
2:54 pm 14:54 Partly Cloudy 96 35.6 75 23.9 51 51 SW 14 22 29.88 1012 10 16 0.00 0.00
3:54 pm 15:54 Mostly Cloudy 96 35.6 75 23.9 51 51 SW 15 24 29.87 1012 10 16 0.00 0.00
4:54 pm 16:54 Mostly Cloudy 96 35.6 74 23.3 49 49 SW 16 26 29.87 1012 10 16 0.00 0.00
5:33 pm 17:33 Mostly Cloudy with Thunderstorms 95 35 75 23.9 53 53 SW 15 24 29.88 1012 10 16 0.00 0.00
5:54 pm 17:54 Mostly Cloudy with Thunderstorms 94 34.4 75 23.9 54 54 WSW 16 26 29.88 1012 10 16 0.00 0.00
6:05 pm 18:05 Mostly Cloudy with Thunderstorms 91 32.8 73 22.8 56 56 WNW 12 19 29.88 1012 10 16 0.00 0.00
6:17 pm 18:17 Mostly Cloudy 90 32.2 72 22.2 56 56 WNW 14 22 29.88 1012 10 16 0.00 0.00
6:54 pm 18:54 Mostly Cloudy 90 32.2 73 22.8 58 58 WSW 8 13 29.88 1012 10 16 0.00 0.00
7:54 pm 19:54 Mostly Cloudy 91 32.8 76 24.4 61 61 SW 12 19 29.89 1012 10 16 0.00 0.00
8:54 pm 20:54 Mostly Cloudy 89 31.7 76 24.4 65 65 SSW 10 17 29.91 1013 10 16 0.00 0.00
9:54 pm 21:54 Partly Cloudy 88 31.1 76 24.4 68 68 SSW 9 15 29.92 1013 10 16 0.00 0.00
10:54 pm 22:54 Mostly Cloudy 86 30 77 25 75 75 SSW 10 17 29.93 1013 10 16 0.00 0.00
11:54 pm 23:54 Mostly Cloudy 86 30 77 25 75 75 SW 10 17 29.93 1013 10 16 0.00 0.00

Powered by AerisWeather